Content
SEND FEEDBACK

Daily
Averages
Monthly
Summary
United States of America

UPI, GUAM


Home > North America > United States > Guam
Elevation: 53 feet     Latitude: 13 34N     Longitude: 144 55E

WEATHER
 
SELECT A DAY
Number of Records: 208,919;   Date Range: 1/1/95 - 7/23/14
 
SHARE

PRINT THIS DATA

[ ← Previous Day ]
WEATHER ALMANAC - MAY 5, 2013
[ Next Day → ]
[ °C ]   °F
Weather ElementAverageHighLow
Temperature85.4 °F90 °F (11:54 am)82 °F (4:54 am)
Dewpoint75.1 °F79 °F (2:54 pm)73.9 °F (3:54 am)
Humidity71.5 %82 % (5:54 am)59 % (1:54 pm)
Barometer29.89 in29.94 in (8:54 am)29.82 in (4:54 pm)
Wind Speed11.3 mph17.3 mph (10:54 am)
Wind Gust24.2 mph (4:25 pm)
Weather ElementAverage
Visibility10 mi
Wind DirectionE (85.6 °)

Weather ElementTotal
Precipitation0.01 in
Cooling Degree Days21 (Base 65)
Growing Degree Days36 (Base 50)
Averaged from 34 records on May 5, 2013
WEATHER CONDITIONS BREAKOUT
WIND DIRECTION BREAKOUT
WEATHER BY HOUR - MAY 5, 2013
[ °C ]   °F
Local TimeTemperatureDewpointHumidityBarometerVisibilityWind DirectionWind SpeedGust SpeedPrecipitationEventsConditions
1:54 AM82.9 °F75.0 °F77 %29.92 in10.0 miEast (100°)10.4 mphClear
2:54 AM82.9 °F75.0 °F77 %29.90 in10.0 miEast (80°)9.2 mphScattered Clouds
3:54 AM82.9 °F73.9 °F74 %29.90 in10.0 miEast (90°)8.1 mphClear
4:46 AM82.4 °F75.2 °F79 %29.93 in10.0 miEast (90°)6.9 mphMostly Cloudy
4:54 AM82.0 °F75.0 °F79 %29.91 in10.0 miEast (80°)6.9 mphMostly Cloudy
5:02 AM82.4 °F75.2 °F79 %29.93 in10.0 miENE (70°)6.9 mphMostly Cloudy
5:15 AM82.4 °F75.2 °F79 %29.93 in10.0 miENE (70°)6.9 mphScattered Clouds
5:54 AM82.0 °F75.9 °F82 %29.91 in10.0 miENE (60°)6.9 mphPartly Cloudy
6:54 AM82.9 °F75.0 °F77 %29.92 in10.0 miEast (80°)5.8 mphPartly Cloudy
7:54 AM86.0 °F75.0 °F70 %29.93 in10.0 miENE (60°)16.1 mphPartly Cloudy
8:54 AM87.1 °F73.9 °F65 %29.94 in10.0 miENE (60°)16.1 mphScattered Clouds
9:54 AM87.1 °F75.0 °F67 %29.94 in10.0 miENE (70°)16.1 mphScattered Clouds
10:54 AM89.1 °F75.0 °F63 %29.91 in10.0 miEast (80°)17.3 mphMostly Cloudy
11:02 AM89.6 °F75.2 °F62 %29.93 in10.0 miEast (90°)13.8 mphMostly Cloudy
11:54 AM90.0 °F75.0 °F61 %29.90 in10.0 miEast (90°)12.7 mphScattered Clouds
12:54 PM89.1 °F75.0 °F63 %29.88 in10.0 miENE (70°)15.0 mph23.0 mphScattered Clouds
1:54 PM90.0 °F73.9 °F59 %29.85 in10.0 miEast (80°)13.8 mphScattered Clouds
2:54 PM86.0 °F79.0 °F79 %29.83 in10.0 miEast (90°)12.7 mph19.6 mph0.01 inMostly Cloudy
3:54 PM87.1 °F75.9 °F69 %29.83 in10.0 miEast (100°)13.8 mph19.6 mphMostly Cloudy
4:25 PM87.8 °F75.2 °F66 %29.85 in10.0 miEast (80°)15.0 mph24.2 mphMostly Cloudy
4:41 PM86.0 °F75.2 °F70 %29.85 in10.0 miEast (90°)13.8 mph20.7 mphScattered Clouds
4:54 PM87.1 °F75.0 °F67 %29.82 in10.0 miEast (100°)15.0 mphMostly Cloudy
5:02 PM87.8 °F75.2 °F66 %29.84 in10.0 miESE (110°)12.7 mph20.7 mphScattered Clouds
5:31 PM86.0 °F75.2 °F70 %29.85 in10.0 miEast (100°)11.5 mphMostly Cloudy
5:47 PM86.0 °F75.2 °F70 %29.86 in10.0 miEast (100°)10.4 mphScattered Clouds
5:54 PM86.0 °F75.9 °F72 %29.83 in10.0 miEast (90°)12.7 mphScattered Clouds
6:54 PM84.9 °F75.0 °F72 %29.85 in10.0 miEast (100°)8.1 mphPartly Cloudy
7:21 PM84.2 °F75.2 °F74 %29.88 in10.0 miEast (100°)6.9 mphMostly Cloudy
7:49 PM84.2 °F75.2 °F74 %29.89 in10.0 miEast (90°)10.4 mphScattered Clouds
7:54 PM84.0 °F75.0 °F74 %29.87 in10.0 miEast (90°)10.4 mphPartly Cloudy
8:54 PM84.0 °F75.9 °F76 %29.88 in10.0 miEast (100°)12.7 mph21.9 mphPartly Cloudy
9:54 PM84.0 °F75.0 °F74 %29.90 in10.0 miEast (90°)8.1 mphScattered Clouds
10:54 PM84.0 °F73.9 °F72 %29.90 in10.0 miEast (80°)11.5 mphClear
11:54 PM82.9 °F73.9 °F74 %29.90 in10.0 miEast (80°)10.4 mphClear
Hourly data recorded from PGUM, located miles away from Upi, Guam







STORIES FROM OUR PARTNERS